This is the latest recevied weather packets stored in our database for station/object HB9GFF-10. If no packets are shown the sender has not sent any weather packets the latest 10 day(s).
| Time | Temp. | Humidity | Pressure | Rain* | Wind** | Luminosity | Snow |
|---|---|---|---|---|---|---|---|
| 1777544559 | 17.78° C | 37% | 959 hPa | - | - | - | - |
| 1777544494 | 17.22° C | 36% | 959 hPa | - | - | - | - |
| 1777544428 | 17.22° C | 37% | 959 hPa | - | - | - | - |
| 1777544363 | 17.78° C | 40% | 959 hPa | - | - | - | - |
| 1777544298 | 17.22° C | 39% | 959 hPa | - | - | - | - |
| 1777544232 | 16.67° C | 39% | 959 hPa | - | - | - | - |
| 1777544167 | 16.67° C | 36% | 959 hPa | - | - | - | - |
| 1777544101 | 16.67° C | 37% | 959 hPa | - | - | - | - |
| 1777544036 | 16.67° C | 37% | 959 hPa | - | - | - | - |
| 1777543971 | 16.67° C | 37% | 959 hPa | - | - | - | - |
| 1777543905 | 16.67° C | 36% | 959 hPa | - | - | - | - |
| 1777543840 | 17.22° C | 37% | 959 hPa | - | - | - | - |
| 1777543774 | 17.78° C | 36% | 959 hPa | - | - | - | - |
| 1777543709 | 17.22° C | 37% | 959 hPa | - | - | - | - |
| 1777543644 | 17.78° C | 37% | 959 hPa | - | - | - | - |
| 1777543578 | 17.22° C | 38% | 959 hPa | - | - | - | - |
| 1777543513 | 16.67° C | 37% | 959 hPa | - | - | - | - |
| 1777543447 | 17.22° C | 36% | 959 hPa | - | - | - | - |
| 1777543382 | 16.67° C | 36% | 959 hPa | - | - | - | - |
| 1777543317 | 17.22° C | 37% | 959 hPa | - | - | - | - |
| 1777543251 | 17.22° C | 38% | 959 hPa | - | - | - | - |
| 1777543186 | 16.67° C | 36% | 959 hPa | - | - | - | - |
| 1777543120 | 16.67° C | 35% | 959 hPa | - | - | - | - |
| 1777543055 | 16.67° C | 35% | 959 hPa | - | - | - | - |
| 1777542989 | 17.78° C | 37% | 959 hPa | - | - | - | - |
* Rain since midnight (hover to see other rain measurements)
** Current wind speed in m/s (hover to see current wind gust speed)